Location: Rock Island IL
(41.5000°N, 90.5500°W)
Time: 22:51:34
(UTC-05:00)

Amateur Radio Satellites - All Passes

Search period start: 22 September 2017 22:21
Search period end: 23 September 2017 22:21
Location: Rock Island IL, 41.5000°N, 90.5500°W

Satellite Date Start Highest point End Downlink Frequencies (MHz)
Time Altitude Azimuth
Max Valier Satellite 22 Sep 22:37:08 22:40:29 32° 263° (W) 22:43:51 145.860
PCSat 22 Sep 22:41:45 22:44:45 15° 39° (NE) 22:47:45 145.827
TIGRISAT 22 Sep 22:43:22 22:47:56 51° 99° (E) 22:52:31 435.000
ESTCUBE 1 22 Sep 22:54:51 22:58:41 28° 68° (ENE) 23:02:32 437.505/2401.250
DELFI C3 22 Sep 22:56:22 22:58:52 16° 267° (W) 23:01:23 145.870
FO-29 22 Sep 22:57:23 23:02:36 48° 289° (WNW) 23:08:20 435.910
ISS 22 Sep 23:04:40 23:07:26 25° 338° (NNW) 23:10:14 437.550
LO-87 22 Sep 23:05:54 23:09:17 46° 74° (ENE) 23:12:42 145.935 - 145.965
Tancredo 1 22 Sep 23:07:52 23:08:20 10° 357° (N) 23:08:47 437.200
SO-50 22 Sep 23:13:34 23:18:07 59° 54° (NE) 23:22:41 436.795
YUBILEINY 22 Sep 23:15:19 23:23:33 43° 73° (ENE) 23:31:46 435.215
VELOX 1 22 Sep 23:30:15 23:32:09 13° 62° (ENE) 23:34:03 145.980
SPROUT 22 Sep 23:35:36 23:38:29 18° 65° (ENE) 23:41:22 437.525
PRISM 22 Sep 23:35:44 23:39:47 75° 285° (WNW) 23:43:50 437.425
QB50P2 22 Sep 23:40:34 23:41:31 11° 90° (E) 23:42:26 145.880/145.840
nSIGHT-1 22 Sep 23:46:59 23:49:09 16° 348° (NNW) 23:51:20 .
UNISAT 6 22 Sep 23:56:29 00:00:24 27° 292° (WNW) 00:04:21 437.425
NANOSAT C BR1 23 Sep 00:14:56 00:18:13 21° 94° (E) 00:21:31 145.865
TIGRISAT 23 Sep 00:21:07 00:24:13 18° 296° (WNW) 00:27:19 435.000
PCSat 23 Sep 00:23:38 00:29:05 77° 58° (ENE) 00:34:29 145.827
AIST 2D 23 Sep 00:26:42 00:30:14 81° 283° (WNW) 00:33:43 435.315
ESTCUBE 1 23 Sep 00:31:29 00:35:24 29° 264° (W) 00:39:21 437.505/2401.250
UKube-1 23 Sep 00:37:36 00:38:56 11° 61° (ENE) 00:40:15 .
DX 1 23 Sep 00:40:42 00:43:45 19° 65° (ENE) 00:46:48 434.975-435.025
Tancredo 1 23 Sep 00:42:04 00:43:44 15° 16° (NNE) 00:45:23 437.200
50 SAT 23 Sep 00:42:37 00:44:59 18° 68° (ENE) 00:47:20 437.505
ISS 23 Sep 00:42:56 00:44:47 14° 359° (N) 00:46:38 437.550
DUCHIFAT 1 23 Sep 00:43:23 00:47:22 38° 98° (E) 00:51:21 145.980
SO-50 23 Sep 00:55:19 00:58:07 16° 250° (WSW) 01:00:56 436.795
POLYITAN 1 23 Sep 00:55:33 00:59:51 70° 102° (ESE) 01:04:07 437.675
EO-79 23 Sep 01:00:06 01:04:24 79° 102° (ESE) 01:08:41 145.935-145.965
VELOX 1 23 Sep 01:03:40 01:08:02 66° 259° (WSW) 01:12:25 145.980
SPROUT 23 Sep 01:10:04 01:14:03 40° 262° (W) 01:18:05 437.525
YUBILEINY 23 Sep 01:12:18 01:20:16 42° 273° (W) 01:28:16 435.215
QB50P2 23 Sep 01:13:26 01:17:42 66° 286° (WNW) 01:21:57 145.880/145.840
M-CUBED/EXP-1 PRIME 23 Sep 01:19:38 01:22:17 22° 101° (E) 01:24:54 437.505
BUGSAT 1 23 Sep 01:22:26 01:26:04 28° 96° (E) 01:29:42 437.445
nSIGHT-1 23 Sep 01:24:28 01:26:28 15° 9° (N) 01:28:27 .
Oscar 19 23 Sep 01:42:53 01:46:58 23° 94° (E) 01:51:01 437.125/150
NANOSAT C BR1 23 Sep 01:50:09 01:53:58 32° 290° (WNW) 01:57:47 145.865
ITUPSAT 1 23 Sep 02:07:04 02:09:30 14° 61° (ENE) 02:11:55 437.325
PCSat 23 Sep 02:08:56 02:11:46 14° 257° (WSW) 02:14:35 145.827
UKube-1 23 Sep 02:10:03 02:14:20 73° 257° (WSW) 02:18:39 .
50 SAT 23 Sep 02:14:41 02:17:20 22° 264° (W) 02:19:59 437.505
DX 1 23 Sep 02:15:33 02:19:38 40° 261° (W) 02:23:44 434.975-435.025
Tancredo 1 23 Sep 02:15:55 02:18:37 76° 34° (NNE) 02:21:19 437.200
ISS 23 Sep 02:19:32 02:22:11 22° 19° (NNE) 02:24:49 437.550
DUCHIFAT 1 23 Sep 02:19:45 02:22:45 19° 294° (WNW) 02:25:44 145.980
POLYITAN 1 23 Sep 02:33:33 02:35:02 12° 298° (WNW) 02:36:31 437.675
EO-79 23 Sep 02:38:54 02:39:30 10° 299° (WNW) 02:40:07 145.935-145.965
BEESAT 23 Sep 02:42:16 02:46:24 30° 67° (ENE) 02:50:33 436.000
M-CUBED/EXP-1 PRIME 23 Sep 02:54:15 02:56:38 18° 298° (WNW) 02:58:58 437.505
AO-7 23 Sep 02:54:41 02:58:31 14° 88° (E) 03:02:22 .
BUGSAT 1 23 Sep 02:57:52 03:01:18 25° 292° (WNW) 03:04:46 437.445
Gurwin Techsat 1B 23 Sep 02:59:49 03:05:11 82° 104° (ESE) 03:10:30 435.225
nSIGHT-1 23 Sep 03:00:23 03:03:28 38° 28° (NNE) 03:06:33 .
O/OREOS (USA 219) 23 Sep 03:02:00 03:06:29 86° 114° (ESE) 03:11:03 437.305
MOZHAYETS 4 23 Sep 03:20:03 03:24:38 68° 75° (ENE) 03:29:15
Oscar 19 23 Sep 03:21:35 03:26:27 42° 290° (WNW) 03:31:16 437.125/150
RS-15 23 Sep 03:37:57 03:43:34 14° 94° (E) 03:49:12 29.354- 29.394
ITUPSAT 1 23 Sep 03:41:58 03:46:42 70° 257° (WSW) 03:51:31 437.325
CUBESAT XI-V 23 Sep 03:45:05 03:49:02 27° 68° (ENE) 03:52:59 437.345
KKS-1 23 Sep 03:49:33 03:50:35 11° 60° (ENE) 03:51:37 437.445
ISS 23 Sep 03:55:39 03:58:57 77° 218° (SW) 04:02:14 437.550
BEESAT 23 Sep 04:20:00 04:24:06 29° 264° (W) 04:28:15 436.000
ITAMSAT 1 23 Sep 04:24:28 04:29:33 50° 100° (E) 04:34:36 435.822/435.867
nSIGHT-1 23 Sep 04:36:55 04:39:42 26° 225° (SW) 04:42:29 .
AO-85 23 Sep 04:39:31 04:42:56 22° 46° (NE) 04:46:32 145.980
Gurwin Techsat 1B 23 Sep 04:41:44 04:44:24 14° 301° (WNW) 04:47:04 435.225
BEESAT 3 23 Sep 04:42:17 04:46:09 47° 53° (NE) 04:49:57 437.485
AO-7 23 Sep 04:44:14 04:52:34 76° 106° (ESE) 05:00:51 .
O/OREOS (USA 219) 23 Sep 04:44:58 04:46:35 12° 310° (NW) 04:48:11 437.305
BEESAT 2 23 Sep 04:48:20 04:51:26 20° 45° (NE) 04:54:29 435.950
MOZHAYETS 4 23 Sep 05:00:32 05:02:15 12° 271° (W) 05:03:57
KKS-1 23 Sep 05:22:04 05:26:28 80° 256° (WSW) 05:30:55 437.445
CUBESAT XI-V 23 Sep 05:22:06 05:26:16 31° 264° (W) 05:30:28 437.345
RS-15 23 Sep 05:41:31 05:53:34 67° 115° (ESE) 06:05:42 29.354- 29.394
STARS 23 Sep 05:48:20 05:52:40 80° 75° (ENE) 05:57:02 437.465
ITAMSAT 1 23 Sep 06:04:47 06:08:38 21° 297° (WNW) 06:12:30 435.822/435.867
CUTE-I 23 Sep 06:09:16 06:12:14 15° 90° (E) 06:15:10 437.470
AO-85 23 Sep 06:19:12 06:23:34 51° 242° (WSW) 06:28:14 145.980
BEESAT 3 23 Sep 06:21:01 06:23:17 15° 250° (WSW) 06:25:33 437.485
BEESAT 2 23 Sep 06:25:30 06:29:21 42° 243° (WSW) 06:33:07 435.950
DOVE 4 23 Sep 06:30:17 06:34:31 84° 286° (WNW) 06:38:57 437.250
XW-2D 23 Sep 06:31:19 06:34:33 25° 96° (E) 06:37:43 145.860 - 145.880
STRAND 1 23 Sep 06:36:24 06:40:22 23° 64° (ENE) 06:44:21 437.568
AO-7 23 Sep 06:38:03 06:44:33 27° 306° (NW) 06:51:01 .
XW-2B 23 Sep 06:43:26 06:46:56 34° 97° (E) 06:50:24 145.730 - 145.750
XW-2F 23 Sep 06:43:58 06:47:26 33° 97° (E) 06:50:51 145.980 - 146.000
HO-68 23 Sep 06:45:23 06:49:04 14° 88° (E) 06:52:44 435.675
XW-2C 23 Sep 07:04:32 07:08:21 66° 102° (ESE) 07:12:06 145.795 - 145.815
NUDT-PHONESAT 23 Sep 07:09:09 07:12:49 51° 100° (E) 07:16:25 437.300
LilacSat-2 23 Sep 07:16:06 07:19:57 82° 283° (WNW) 07:23:45 437.200
CUTE 1.7 + AOD 2 23 Sep 07:26:04 07:29:23 22° 94° (E) 07:32:39 437.475
KAITUO 1B 23 Sep 07:36:41 07:40:25 65° 285° (WNW) 07:44:05 145.475/437.950
CUTE-I 23 Sep 07:47:27 07:52:45 69° 287° (WNW) 07:58:03 437.470
CUBEBUG 2 23 Sep 07:48:53 07:52:44 25° 94° (E) 07:56:36 437.445
RS-15 23 Sep 07:55:13 08:06:49 45° 319° (NW) 08:18:27 29.354- 29.394
UWE-3 23 Sep 07:57:34 08:00:43 18° 92° (E) 08:03:51 435.000/436.395/437.385
XW-2D 23 Sep 08:05:37 08:08:35 22° 292° (WNW) 08:11:30 145.860 - 145.880
STRAND 1 23 Sep 08:14:26 08:19:16 43° 261° (W) 08:24:08 437.568
XW-2B 23 Sep 08:18:22 08:20:50 17° 293° (WNW) 08:23:17 145.730 - 145.750
XW-2F 23 Sep 08:18:46 08:21:17 17° 293° (WNW) 08:23:46 145.980 - 146.000
HO-68 23 Sep 08:30:30 08:37:44 85° 106° (ESE) 08:44:56 435.675
SEEDS 23 Sep 08:34:04 08:38:16 81° 103° (ESE) 08:42:26 437.485
AO-73 23 Sep 08:43:23 08:47:12 25° 94° (E) 08:50:58 145.935
Oscar 11 23 Sep 08:43:47 08:46:37 17° 92° (E) 08:49:26 .
NUDT-PHONESAT 23 Sep 08:45:00 08:46:12 11° 296° (WNW) 08:47:24 437.300
ZACube-1 23 Sep 08:45:44 08:49:47 30° 96° (E) 08:53:49 437.345
AAUSAT CUBESAT 2 23 Sep 08:58:23 09:02:29 66° 102° (ESE) 09:06:32 437.432
CUTE 1.7 + AOD 2 23 Sep 09:01:29 09:05:14 31° 290° (WNW) 09:08:56 437.475
XW-2A 23 Sep 09:05:15 09:08:36 51° 285° (WNW) 09:11:54 145.665 - 145.685
FO-29 23 Sep 09:09:44 09:15:27 71° 74° (ENE) 09:20:43 435.910
UNISAT 6 23 Sep 09:18:47 09:22:26 26° 68° (ENE) 09:26:08 437.425
CUBEBUG 2 23 Sep 09:25:06 09:29:22 35° 290° (WNW) 09:33:39 437.445
UWE-3 23 Sep 09:32:53 09:37:22 47° 288° (WNW) 09:41:51 435.000/436.395/437.385
TIGRISAT 23 Sep 09:42:05 09:46:09 42° 71° (ENE) 09:50:21 435.000
Max Valier Satellite 23 Sep 10:06:55 10:09:51 21° 95° (E) 10:12:45 145.860
RS-15 23 Sep 10:14:26 10:23:44 24° 352° (N) 10:32:52 29.354- 29.394
Oscar 11 23 Sep 10:18:50 10:22:57 42° 288° (WNW) 10:27:01 .
AO-73 23 Sep 10:19:21 10:23:24 32° 291° (WNW) 10:27:25 145.935
HO-68 23 Sep 10:19:41 10:24:35 20° 305° (NW) 10:29:28 435.675
ZACube-1 23 Sep 10:22:05 10:25:56 27° 292° (WNW) 10:29:46 437.345
PRISM 23 Sep 10:24:30 10:28:35 76° 75° (ENE) 10:32:41 437.425
DELFI C3 23 Sep 10:31:12 10:35:05 59° 101° (E) 10:38:56 145.870
AAUSAT CUBESAT 2 23 Sep 10:36:12 10:37:21 11° 298° (WNW) 10:38:31 437.432
UNISAT 6 23 Sep 10:55:19 10:59:02 28° 265° (W) 11:02:51 437.425
FO-29 23 Sep 10:58:09 11:01:00 14° 269° (W) 11:03:45 435.910
AIST 2D 23 Sep 11:00:47 11:04:00 33° 72° (ENE) 11:07:15 435.315
NANOSAT C BR1 23 Sep 11:07:37 11:10:19 17° 65° (ENE) 11:13:00 145.865
EO-88 23 Sep 11:08:00 11:11:40 85° 284° (WNW) 11:15:19 145.990 - 145.960
TIGRISAT 23 Sep 11:20:12 11:23:04 17° 268° (W) 11:25:59 435.000
O/OREOS (USA 219) 23 Sep 11:33:27 11:36:45 19° 55° (NE) 11:40:02 437.305
DUCHIFAT 1 23 Sep 11:35:13 11:38:48 29° 69° (ENE) 11:42:26 145.980
Max Valier Satellite 23 Sep 11:40:32 11:43:37 25° 290° (WNW) 11:46:41 145.860
POLYITAN 1 23 Sep 11:47:50 11:51:54 50° 73° (ENE) 11:56:01 437.675
EO-79 23 Sep 11:52:12 11:56:18 57° 74° (ENE) 12:00:27 145.935-145.965
M-CUBED/EXP-1 PRIME 23 Sep 12:04:21 12:08:19 38° 67° (ENE) 12:12:02 437.505
LO-87 23 Sep 12:05:31 12:09:05 58° 100° (E) 12:12:39 145.935 - 145.965
QB50P2 23 Sep 12:05:34 12:09:47 90° 260° (W) 12:14:03 145.880/145.840
DELFI C3 23 Sep 12:08:13 12:09:19 11° 297° (WNW) 12:10:25 145.870
BUGSAT 1 23 Sep 12:12:43 12:15:36 19° 66° (ENE) 12:18:33 437.445
YUBILEINY 23 Sep 12:16:18 12:24:32 49° 89° (E) 12:32:46 435.215
ESTCUBE 1 23 Sep 12:22:55 12:27:22 57° 100° (E) 12:31:47 437.505/2401.250
RS-15 23 Sep 12:31:10 12:41:37 31° 28° (NNE) 12:51:38 29.354- 29.394
AIST 2D 23 Sep 12:35:21 12:37:18 14° 268° (W) 12:39:15 435.315
NANOSAT C BR1 23 Sep 12:41:41 12:45:39 43° 261° (W) 12:49:41 145.865
Gurwin Techsat 1B 23 Sep 12:43:28 12:46:58 18° 61° (ENE) 12:50:28 435.225
VELOX 1 23 Sep 12:53:58 12:57:24 22° 95° (E) 13:00:49 145.980
SPROUT 23 Sep 12:55:19 12:59:09 31° 96° (E) 13:02:58 437.525
Oscar 19 23 Sep 12:59:33 13:04:14 35° 68° (ENE) 13:08:56 437.125/150
DUCHIFAT 1 23 Sep 13:11:05 13:14:27 23° 265° (W) 13:17:50 145.980
O/OREOS (USA 219) 23 Sep 13:12:00 13:16:26 48° 253° (WSW) 13:20:51 437.305
NO-84 23 Sep 13:14:15 13:18:02 49° 134° (SE) 13:21:32 435.350 FM
POLYITAN 1 23 Sep 13:25:52 13:27:59 13° 269° (W) 13:30:06 437.675
SO-50 23 Sep 13:29:24 13:32:20 17° 110° (ESE) 13:35:17 436.795
EO-79 23 Sep 13:30:48 13:32:24 12° 270° (W) 13:34:02 145.935-145.965
50 SAT 23 Sep 13:34:44 13:36:54 16° 94° (E) 13:39:03 437.505
M-CUBED/EXP-1 PRIME 23 Sep 13:39:40 13:42:46 19° 260° (W) 13:45:44 437.505
BUGSAT 1 23 Sep 13:47:06 13:50:44 33° 263° (W) 13:54:25 437.445
AO-7 23 Sep 13:53:14 13:59:31 25° 53° (NE) 14:05:46 .
UKube-1 23 Sep 13:57:45 14:00:40 18° 93° (E) 14:03:35 .
ESTCUBE 1 23 Sep 14:01:11 14:03:41 15° 297° (WNW) 14:06:09 437.505/2401.250
DX 1 23 Sep 14:03:22 14:07:14 32° 97° (E) 14:11:07 434.975-435.025
ITAMSAT 1 23 Sep 14:07:57 14:09:04 11° 57° (ENE) 14:10:11 435.822/435.867
YUBILEINY 23 Sep 14:13:39 14:21:30 37° 289° (WNW) 14:29:24 435.215
Gurwin Techsat 1B 23 Sep 14:21:07 14:26:22 63° 258° (WSW) 14:31:40 435.225
VELOX 1 23 Sep 14:29:56 14:33:54 33° 290° (WNW) 14:37:50 145.980
SPROUT 23 Sep 14:31:30 14:34:52 23° 293° (WNW) 14:38:15 437.525
Oscar 19 23 Sep 14:39:05 14:43:33 29° 265° (W) 14:48:03 437.125/150
RS-15 23 Sep 14:44:13 14:56:18 81° 56° (NE) 15:07:42 29.354- 29.394
NO-84 23 Sep 14:52:28 14:55:34 24° 329° (NNW) 14:58:28 435.350 FM
PCSat 23 Sep 15:05:03 15:10:25 70° 116° (ESE) 15:15:50 145.827
50 SAT 23 Sep 15:06:38 15:09:24 24° 290° (WNW) 15:12:08 437.505
SO-50 23 Sep 15:07:59 15:12:22 52° 307° (NW) 15:16:48 436.795
MOZHAYETS 4 23 Sep 15:16:08 15:18:59 16° 91° (E) 15:21:47
UKube-1 23 Sep 15:32:49 15:36:51 40° 289° (WNW) 15:40:52 .
DX 1 23 Sep 15:39:49 15:43:16 23° 293° (WNW) 15:46:41 434.975-435.025
ITAMSAT 1 23 Sep 15:42:29 15:47:38 79° 74° (ENE) 15:52:50 435.822/435.867
ITUPSAT 1 23 Sep 15:42:34 15:46:45 29° 96° (E) 15:50:54 437.325
AO-7 23 Sep 15:43:01 15:51:22 82° 253° (WSW) 15:59:45 .
BEESAT 23 Sep 16:18:56 16:23:44 70° 102° (ESE) 16:28:30 436.000
PCSat 23 Sep 16:50:19 16:54:21 21° 316° (NW) 16:58:23 145.827
MOZHAYETS 4 23 Sep 16:51:55 16:56:26 51° 287° (WNW) 17:00:54
RS-15 23 Sep 16:58:07 17:07:21 28° 258° (WSW) 17:16:15 29.354- 29.394
XW-2D 23 Sep 17:13:36 17:15:40 14° 65° (ENE) 17:17:43 145.860 - 145.880
KKS-1 23 Sep 17:13:36 17:16:45 19° 93° (E) 17:19:53 437.445
HO-68 23 Sep 17:16:29 17:19:24 13° 50° (NE) 17:22:19 435.675
CUBESAT XI-V 23 Sep 17:17:44 17:22:21 63° 101° (E) 17:26:54 437.345
ITUPSAT 1 23 Sep 17:20:18 17:24:31 31° 292° (WNW) 17:28:42 437.325
XW-2B 23 Sep 17:25:15 17:27:55 18° 67° (ENE) 17:30:36 145.730 - 145.750
XW-2F 23 Sep 17:25:26 17:28:00 17° 67° (ENE) 17:30:35 145.980 - 146.000
ITAMSAT 1 23 Sep 17:25:40 17:27:41 12° 271° (W) 17:29:42 435.822/435.867
CUTE-I 23 Sep 17:30:41 17:35:00 26° 65° (ENE) 17:39:20 437.470
DOVE 4 23 Sep 17:35:42 17:40:09 84° 258° (WSW) 17:44:25 437.250
STARS 23 Sep 17:38:54 17:41:13 14° 92° (E) 17:43:32 437.465
AO-7 23 Sep 17:40:38 17:45:16 16° 271° (W) 17:49:55 .
XW-2C 23 Sep 17:45:43 17:49:08 31° 71° (ENE) 17:52:35 145.795 - 145.815
NUDT-PHONESAT 23 Sep 17:48:28 17:51:31 24° 69° (ENE) 17:54:34 437.300
LilacSat-2 23 Sep 17:57:34 18:01:18 47° 73° (ENE) 18:05:02 437.200
BEESAT 23 Sep 17:58:26 18:00:54 14° 299° (WNW) 18:03:23 436.000
KAITUO 1B 23 Sep 18:16:06 18:19:48 54° 74° (ENE) 18:23:31 145.475/437.950
CUTE 1.7 + AOD 2 23 Sep 18:19:15 18:22:02 17° 65° (ENE) 18:24:49 437.475
XW-2D 23 Sep 18:45:47 18:49:27 43° 261° (W) 18:53:09 145.860 - 145.880
CUBEBUG 2 23 Sep 18:47:40 18:50:42 19° 65° (ENE) 18:53:48 437.445
KKS-1 23 Sep 18:49:17 18:53:27 40° 289° (WNW) 18:57:36 437.445
UWE-3 23 Sep 18:55:33 18:57:48 14° 63° (ENE) 19:00:05 435.000/436.395/437.385
CUBESAT XI-V 23 Sep 18:56:44 18:59:10 14° 298° (WNW) 19:01:36 437.345
XW-2F 23 Sep 18:58:22 19:01:51 33° 263° (W) 19:05:22 145.980 - 146.000
XW-2B 23 Sep 18:58:24 19:01:51 32° 263° (W) 19:05:21 145.730 - 145.750
HO-68 23 Sep 18:58:43 19:05:44 64° 69° (ENE) 19:12:49 435.675
CUTE-I 23 Sep 19:09:49 19:14:49 41° 262° (W) 19:19:51 437.470
STARS 23 Sep 19:13:33 19:17:51 53° 287° (WNW) 19:22:09 437.465
XW-2C 23 Sep 19:20:42 19:23:22 18° 267° (W) 19:26:03 145.795 - 145.815
NUDT-PHONESAT 23 Sep 19:22:18 19:25:18 22° 265° (W) 19:28:20 437.300
SEEDS 23 Sep 19:25:16 19:29:24 54° 74° (ENE) 19:33:33 437.485
LilacSat-2 23 Sep 19:34:12 19:35:49 12° 269° (W) 19:37:27 437.200
XW-2A 23 Sep 19:35:58 19:39:14 45° 74° (ENE) 19:42:33 145.665 - 145.685
AO-73 23 Sep 19:39:16 19:42:25 20° 66° (ENE) 19:45:38 145.935
Oscar 11 23 Sep 19:39:20 19:41:39 14° 64° (ENE) 19:43:59 .
ZACube-1 23 Sep 19:41:46 19:45:13 23° 67° (ENE) 19:48:44 437.345
AAUSAT CUBESAT 2 23 Sep 19:48:08 19:52:05 42° 72° (ENE) 19:56:01 437.432
NO-84 23 Sep 19:48:11 19:50:57 30° 33° (NNE) 19:53:35 435.350 FM
CUTE 1.7 + AOD 2 23 Sep 19:53:25 19:57:30 44° 261° (W) 20:01:38 437.475
KAITUO 1B 23 Sep 19:53:42 19:54:06 10° 270° (W) 19:54:30 145.475/437.950
BEESAT 3 23 Sep 20:08:31 20:12:31 82° 122° (ESE) 20:16:34 437.485
Tancredo 1 23 Sep 20:09:21 20:12:02 65° 326° (NW) 20:14:43 437.200
BEESAT 2 23 Sep 20:16:30 20:19:59 29° 114° (ESE) 20:23:31 435.950
CUBEBUG 2 23 Sep 20:23:04 20:27:01 38° 263° (W) 20:31:07 437.445
STRAND 1 23 Sep 20:24:19 20:29:26 63° 102° (ESE) 20:34:32 437.568
UWE-3 23 Sep 20:29:30 20:33:43 57° 260° (W) 20:38:05 435.000/436.395/437.385
AO-85 23 Sep 20:34:05 20:37:49 46° 118° (ESE) 20:41:35 145.980
ISS 23 Sep 20:35:41 20:38:33 29° 136° (SE) 20:41:27 437.550
Max Valier Satellite 23 Sep 20:47:49 20:48:42 11° 64° (ENE) 20:49:35 145.860
HO-68 23 Sep 20:48:22 20:53:56 24° 267° (W) 20:59:32 435.675
SEEDS 23 Sep 21:03:27 21:05:23 13° 270° (W) 21:07:20 437.485
Oscar 11 23 Sep 21:13:02 21:17:18 56° 260° (W) 21:21:37 .
AO-73 23 Sep 21:14:18 21:18:21 38° 263° (W) 21:22:31 145.935
nSIGHT-1 23 Sep 21:14:34 21:17:47 82° 144° (SE) 21:21:02 .
DELFI C3 23 Sep 21:16:25 21:19:58 33° 71° (ENE) 21:23:32 145.870
ZACube-1 23 Sep 21:17:26 21:21:18 32° 264° (W) 21:25:18 437.345
AAUSAT CUBESAT 2 23 Sep 21:25:11 21:27:43 16° 268° (W) 21:30:15 437.432
NO-84 23 Sep 21:25:54 21:28:08 20° 232° (SW) 21:30:17 435.350 FM
Tancredo 1 23 Sep 21:45:23 21:46:57 14° 345° (NNW) 21:48:31 437.200
EO-88 23 Sep 21:45:25 21:48:51 38° 73° (ENE) 21:52:17 145.990 - 145.960
BEESAT 3 23 Sep 21:48:38 21:50:37 13° 320° (NW) 21:52:36 437.485
BEESAT 2 23 Sep 21:54:14 21:57:42 27° 312° (NW) 22:01:11 435.950
SO-50 23 Sep 21:59:08 22:02:35 20° 43° (NE) 22:06:02 436.795
FO-29 23 Sep 22:02:07 22:07:34 61° 102° (ESE) 22:13:38 435.910
STRAND 1 23 Sep 22:04:49 22:08:04 17° 299° (WNW) 22:11:21 437.568
PCSat 23 Sep 22:11:40 22:13:32 12° 36° (NE) 22:15:24 145.827
ISS 23 Sep 22:11:55 22:14:58 36° 333° (NNW) 22:18:03 437.550
AO-85 23 Sep 22:15:45 22:18:27 18° 317° (NW) 22:21:11 145.980
